Location: Gu�tanj
(46.5431°N, 14.9692°E)
Time: 21:29:41
(UTC+00:00)

Cosmos 962 Rocket - Pass Details

Date: 03 March 2021
Orbit: 950 x 999 km, 83.0° (Epoch: 21 April)

Event Time Altitude Azimuth Distance (km) Brightness Sun altitude
Rises 18:07:41 0° 179° (S) 3,637 7.4 -14.3°
Reaches altitude 10° 18:10:10 10° 177° (S) 2,702 6.7 -14.7°
Maximum altitude 18:16:19 72° 95° (E) 1,028 4.4 -15.8°
Drops below altitude 10° 18:22:36 10° 12° (NNE) 2,754 6.8 -16.8°
Sets 18:25:09 0° 11° (N) 3,713 7.5 -17.3°
